User: anonymous   Login
Location: Unspecified
(0.0000°N, 0.0000°E)
Time: 20:40:26
(UTC+00:00)
Language:

COSMOS 2439 - Orbit

View from above orbital plane
View from above orbital plane
View from above satellite
View from above satellite

Ground track
Ground track

The orbit data is extracted from the following two-line orbital elements,

1 32956U 08025D   17172.70798392 +.00000009 +00000-0 -52821-5 0  9996
2 32956 082.5073 237.9660 0019374 278.3370 081.5517 12.43000470411980
Epoch (UTC): 21 June 2017 16:59:29
Eccentricity: 0.0019374
inclination: 82.5073°
perigee height: 1478 km
apogee height: 1509 km
right ascension of ascending node: 237.9660°
argument of perigee: 278.3370°
revolutions per day: 12.43000470
mean anomaly at epoch: 81.5517°
orbit number at epoch: 41198

The dashed part of the orbit path shows where the satellite is in the earth's shadow,  

DLR